#timestamp,LO_Frequency,Hit 
1501984815.1,286047003.8,N
1501984835.9,286047001.6,N
1501984855.7,286047001.4,N
1501984875.5,286047003.9,N
1501984895.4,286047003.3,N
1501984915.2,286047004.2,N
1501984935.0,286047002.2,N
1501984935.9,286047002.2,N
1501984955.8,286046999.8,N
1501984975.6,286047000.4,N
1501984995.4,286047001.2,N
1501985015.2,286046998.3,N
1501985035.1,286046997.2,N
1501985055.1,286046996.9,N
1501985056.0,286046996.9,N
1501985075.8,286046997.4,N
1501985095.7,286046996.8,N
1501985115.5,286046996.8,N
1501985135.3,286046998.9,N
1501985155.1,286046999.7,N
1501985175.9,286047000.0,N
1501985195.7,286046998.1,N
1501985215.5,286046999.4,N
1501985235.4,286047002.7,N
1501985255.2,286047001.1,N
1501985275.0,286046996.5,N
1501985275.9,286046996.5,N
1501985295.8,286046998.2,N
1501985315.6,286046998.6,N
1501985335.4,286046997.8,N
1501985355.3,286046999.4,N
1501985375.1,286046998.6,N
1501985376.0,286046998.6,N
1501985395.8,286046997.3,N
1501985415.7,286046997.5,N
1501985435.6,286046997.7,N
1501985455.4,286046996.0,N
1501985475.3,286046996.1,N
1501985495.1,286046999.2,N
1501985515.8,286046997.0,N
1501985535.7,286046995.1,P
1501985555.5,286046997.4,N
1501985575.3,286046997.6,N
1501985595.2,286046997.4,N
1501985615.0,286046998.8,N
1501985615.9,286046998.8,N
1501985635.7,286046999.8,N
1501985655.6,286046999.7,N
1501985675.4,286047005.1,P
1501985695.2,286047006.8,N
1501985715.1,286047005.4,N
1501985716.0,286047005.4,N
1501985735.8,286047001.8,N
1501985755.6,286047002.8,N
1501985775.5,286047002.8,N
1501985795.3,286046998.1,N
1501985815.1,286047000.0,N
1501985835.9,286047002.3,N
1501985855.7,286046998.3,N
1501985875.5,286047000.8,N
1501985895.4,286047002.3,N
1501985915.2,286047001.5,N
1501985935.0,286047005.8,N
1501985935.9,286047005.8,N
1501985955.8,286047002.4,N
1501985975.6,286047003.3,N
1501985995.4,286047002.4,N
1501986015.3,286047005.9,N
1501986035.1,286047005.2,N
1501986036.0,286047005.2,N
1501986055.8,286047005.4,N
1501986075.7,286047004.0,N
1501986095.5,286047001.9,N
1501986115.3,286047001.4,N
1501986135.1,286047004.2,N
1501986155.9,286047005.5,N
1501986175.7,286047001.3,N
1501986195.5,286047005.9,N
1501986215.4,286047005.8,N
1501986235.2,286046999.7,N
1501986255.0,286046999.7,N
1501986255.9,286046999.7,N
1501986275.8,286047001.8,N
1501986295.6,286046999.8,N
1501986315.4,286047002.1,N
1501986335.3,286047001.8,N
1501986355.1,286047006.0,N
1501986356.0,286047006.0,N
1501986375.8,286047003.1,N
1501986395.7,286047003.9,N
1501986415.5,286047007.3,P
1501986435.3,286047005.9,N
1501986455.2,286047003.0,N
1501986475.9,286047006.0,P
1501986495.7,286047001.1,N
1501986515.6,286047002.3,N
1501986535.4,286046998.2,N
1501986555.2,286046998.3,N
1501986575.1,286046999.3,N
1501986576.0,286046999.3,N
1501986595.8,286046998.1,N
1501986615.6,286047000.0,N
1501986635.5,286046999.8,N
1501986655.3,286047002.1,N
1501986675.1,286047005.5,N
1501986695.8,286047004.0,N
1501986715.7,286047002.1,N
1501986735.5,286047001.9,N
1501986755.3,286046999.9,N
1501986775.2,286047001.1,N
1501986795.9,286046999.0,N
1501986815.7,286046999.3,N
1501986835.6,286046999.2,N
1501986855.4,286046997.2,N
1501986875.2,286046999.6,N
1501986895.1,286046999.5,N
1501986896.0,286046999.5,N
1501986915.8,286046998.7,N
1501986935.6,286046994.9,N
1501986955.2,286047000.7,N
1501986975.0,286047001.2,N
1501986975.9,286047001.2,N
1501986995.7,286046997.3,N
1501987015.6,286046997.2,N
1501987035.4,286046997.7,N
1501987055.2,286046996.9,N
1501987075.1,286046999.3,N
1501987076.0,286046999.3,N
1501987095.8,286046998.7,N
1501987115.6,286046998.9,N
1501987135.5,286046999.1,N
1501987155.3,286046999.9,N
1501987175.1,286046998.8,N
1501987195.9,286046997.2,N
1501987215.7,286046996.6,N
1501987235.5,286046996.6,N
1501987255.4,286046997.2,N
1501987275.2,286046997.8,N
1501987295.0,286046997.7,N
1501987295.9,286046997.7,N
1501987315.8,286046996.9,N
1501987335.6,286046995.0,P
1501987355.4,286046998.6,N
1501987375.3,286046998.7,N
1501987395.1,286047002.4,N
1501987396.0,286047002.4,N
1501987415.8,286047001.8,N
1501987435.7,286047003.5,N
1501987455.5,286047001.9,N
1501987475.3,286047001.7,N
1501987495.2,286047001.7,N
1501987515.9,286047004.4,N
1501987535.7,286047003.7,N
1501987555.6,286047003.7,N
1501987575.4,286047002.6,N
1501987595.2,286046999.9,N
1501987615.0,286047000.5,N
1501987615.9,286047000.5,N
1501987635.8,286047000.3,N
1501987655.6,286046999.5,N
1501987675.4,286046999.6,N
1501987695.3,286047000.7,N
1501987715.1,286046998.4,N
1501987716.0,286046998.4,N
1501987735.8,286046999.5,N
1501987755.7,286047001.2,N
1501987775.5,286047000.8,N
1501987795.3,286047001.1,N
1501987815.2,286047002.7,N
1501987835.9,286047007.5,P
1501987855.7,286047003.8,N
1501987875.6,286047002.6,N
1501987895.4,286047001.0,N
1501987915.2,286047000.1,N
1501987935.1,286046998.8,N
1501987936.0,286046998.8,N
1501987955.8,286047001.1,N
1501987975.6,286047000.8,N
1501987995.5,286046998.2,N
1501988015.3,286047000.5,N
1501988035.1,286047001.9,N
1501988055.9,286047003.6,N
1501988075.7,286047003.1,N
1501988095.5,286047003.8,N
1501988115.3,286047004.4,N
1501988135.2,286046999.3,N
1501988155.0,286046997.0,N
1501988155.9,286046997.0,N
1501988175.7,286046996.5,N
1501988195.6,286047000.4,N
1501988215.4,286047002.4,N
1501988235.2,286047001.1,N
1501988255.1,286047000.4,N
1501988256.0,286047000.4,N
1501988275.8,286046998.6,N
1501988295.6,286047000.2,N
1501988315.5,286047005.6,N
1501988335.3,286047005.0,N
1501988355.1,286047006.7,N
1501988375.9,286047007.1,N
1501988395.7,286047008.2,N
